TimeEST,TemperatureF,Dew PointF,Humidity,Sea Level PressureIn,VisibilityMPH,Wind Direction,Wind SpeedMPH,Gust SpeedMPH,PrecipitationIn,Events,Conditions,WindDirDegrees,DateUTC
12:54 AM,28.0,14.0,56,30.03,10.0,NW,8.1,-,N/A,,Overcast,320,2014-03-02 05:54:00
1:54 AM,28.9,16.0,58,30.05,8.0,NW,8.1,-,0.00,Snow,Light Snow,320,2014-03-02 06:54:00
2:04 AM,28.0,19.9,72,30.04,2.5,NW,8.1,-,0.00,Snow,Light Snow,310,2014-03-02 07:04:00
2:15 AM,27.0,21.9,81,30.04,1.5,NNW,8.1,-,0.00,Snow,Light Snow,330,2014-03-02 07:15:00
2:22 AM,27.0,23.0,85,30.05,1.2,NNW,6.9,-,0.00,Snow,Light Snow,340,2014-03-02 07:22:00
2:30 AM,27.0,24.1,89,30.04,1.0,North,5.8,-,0.01,Snow,Light Snow,350,2014-03-02 07:30:00
2:49 AM,26.6,23.0,86,30.04,1.5,NW,10.4,-,0.02,Snow,Light Snow,320,2014-03-02 07:49:00
2:54 AM,26.1,21.9,84,30.07,2.0,NW,9.2,-,0.02,Snow,Light Snow,310,2014-03-02 07:54:00
2:59 AM,26.1,21.9,84,30.05,3.0,NW,8.1,-,0.00,Snow,Light Snow,310,2014-03-02 07:59:00
3:06 AM,26.1,21.0,81,30.05,5.0,NW,9.2,-,0.00,Snow,Light Snow,310,2014-03-02 08:06:00
3:26 AM,24.1,19.0,81,30.07,2.5,NNW,20.7,24.2,0.00,Snow,Light Snow,330,2014-03-02 08:26:00
3:37 AM,23.0,18.0,81,30.06,1.5,NNW,16.1,-,0.00,Snow,Light Snow,330,2014-03-02 08:37:00
3:40 AM,23.0,18.0,81,30.06,1.2,NNW,18.4,-,0.00,Snow,Light Snow,340,2014-03-02 08:40:00
3:54 AM,21.9,17.1,82,30.08,1.2,NNW,12.7,-,0.00,Snow,Light Snow,330,2014-03-02 08:54:00
4:05 AM,21.9,17.1,82,30.07,2.0,NNW,12.7,-,0.00,Snow,Light Snow,340,2014-03-02 09:05:00
4:17 AM,21.9,17.1,82,30.08,4.0,NNW,16.1,-,0.00,Snow,Light Snow,340,2014-03-02 09:17:00
4:34 AM,21.9,15.1,75,30.09,5.0,NNW,16.1,-,0.00,Snow,Light Snow,340,2014-03-02 09:34:00
4:45 AM,21.0,15.1,78,30.09,3.0,NNW,15.0,-,0.00,Snow,Light Snow,340,2014-03-02 09:45:00
4:54 AM,21.0,15.1,78,30.11,2.5,NNW,15.0,-,0.00,Snow,Light Snow,340,2014-03-02 09:54:00
5:17 AM,21.0,16.0,81,30.09,4.0,NNW,6.9,-,0.00,Snow,Light Snow,340,2014-03-02 10:17:00
5:39 AM,19.9,14.0,78,30.09,7.0,NNW,15.0,20.7,0.00,Snow,Light Snow,340,2014-03-02 10:39:00
5:54 AM,19.9,14.0,78,30.12,4.0,North,12.7,-,0.00,Snow,Light Snow,350,2014-03-02 10:54:00
6:39 AM,17.1,10.9,77,30.11,8.0,North,10.4,-,0.00,Snow,Light Snow,350,2014-03-02 11:39:00
6:54 AM,17.1,10.9,77,30.14,6.0,North,10.4,-,0.00,Snow,Light Snow,360,2014-03-02 11:54:00
6:58 AM,17.1,10.9,77,30.12,2.5,NNW,12.7,-,0.00,Snow,Light Snow,340,2014-03-02 11:58:00
7:06 AM,17.1,12.0,81,30.13,2.5,North,15.0,-,0.00,Snow,Light Snow,350,2014-03-02 12:06:00
7:22 AM,17.1,10.0,74,30.14,3.0,North,12.7,-,0.01,Snow,Light Snow,10,2014-03-02 12:22:00
7:44 AM,16.0,8.1,71,30.14,4.0,North,13.8,-,0.01,Snow,Light Snow,360,2014-03-02 12:44:00
7:54 AM,16.0,9.0,74,30.17,2.5,North,11.5,-,0.01,Snow,Light Snow,360,2014-03-02 12:54:00
8:00 AM,16.0,9.0,74,30.15,1.5,North,8.1,-,0.00,Snow,Light Snow,350,2014-03-02 13:00:00
8:07 AM,16.0,10.0,77,30.16,1.2,NNW,9.2,-,0.00,Snow,Light Snow,340,2014-03-02 13:07:00
8:14 AM,16.0,9.0,74,30.16,2.0,North,9.2,-,0.00,Snow,Light Snow,350,2014-03-02 13:14:00
8:23 AM,16.0,9.0,74,30.15,4.0,NNE,10.4,-,0.00,Snow,Light Snow,20,2014-03-02 13:23:00
8:54 AM,17.1,9.0,71,30.18,4.0,North,10.4,-,0.00,Snow,Light Snow,350,2014-03-02 13:54:00
9:22 AM,17.1,8.1,68,30.17,5.0,North,13.8,-,0.00,Snow,Light Snow,350,2014-03-02 14:22:00
9:54 AM,17.1,7.0,65,30.17,9.0,North,10.4,-,0.00,,Mostly Cloudy,360,2014-03-02 14:54:00
10:46 AM,18.0,10.0,71,30.16,3.0,NNW,11.5,-,0.00,Snow,Light Snow,340,2014-03-02 15:46:00
10:54 AM,18.0,9.0,68,30.17,2.5,North,11.5,-,0.00,Snow,Light Snow,350,2014-03-02 15:54:00
11:02 AM,18.0,8.1,65,30.16,5.0,NNW,10.4,-,0.00,Snow,Light Snow,340,2014-03-02 16:02:00
11:15 AM,19.0,8.1,62,30.15,9.0,North,10.4,-,0.00,,Mostly Cloudy,360,2014-03-02 16:15:00
11:54 AM,19.0,8.1,62,30.16,9.0,North,13.8,-,0.00,Snow,Light Snow,360,2014-03-02 16:54:00
12:54 PM,18.0,5.0,57,30.12,10.0,North,8.1,-,0.00,,Mostly Cloudy,10,2014-03-02 17:54:00
1:09 PM,18.0,3.9,54,30.10,10.0,NNW,10.4,-,N/A,,Scattered Clouds,340,2014-03-02 18:09:00
1:54 PM,19.9,3.9,50,30.11,10.0,NNE,8.1,-,N/A,,Mostly Cloudy,30,2014-03-02 18:54:00
2:54 PM,19.0,3.0,50,30.11,10.0,NNE,6.9,-,N/A,,Mostly Cloudy,20,2014-03-02 19:54:00
3:54 PM,19.0,1.9,47,30.12,10.0,North,9.2,-,N/A,,Mostly Cloudy,350,2014-03-02 20:54:00
4:54 PM,18.0,1.9,50,30.12,10.0,NNW,8.1,-,N/A,,Mostly Cloudy,340,2014-03-02 21:54:00
5:54 PM,15.1,1.0,54,30.12,10.0,North,9.2,-,N/A,,Scattered Clouds,10,2014-03-02 22:54:00
6:54 PM,14.0,-0.0,54,30.12,10.0,North,5.8,-,N/A,,Mostly Cloudy,360,2014-03-02 23:54:00
7:54 PM,12.9,-0.0,56,30.12,10.0,North,3.5,-,N/A,,Mostly Cloudy,360,2014-03-03 00:54:00
8:54 PM,12.0,-0.0,59,30.12,10.0,Calm,Calm,-,N/A,,Mostly Cloudy,0,2014-03-03 01:54:00
9:54 PM,10.9,-2.0,56,30.13,10.0,Calm,Calm,-,N/A,,Scattered Clouds,0,2014-03-03 02:54:00
10:54 PM,7.0,-0.9,70,30.13,10.0,Calm,Calm,-,N/A,,Partly Cloudy,0,2014-03-03 03:54:00
11:54 PM,5.0,-0.9,76,30.12,10.0,Calm,Calm,-,N/A,,Clear,0,2014-03-03 04:54:00